Creston, IA

6:21 PM CDT on April 26, 2018 (GMT -0500)
Creston Municipal

Weather History for KCSQ - January, 2013

Change the Weather History Date:

Sunday, January 6, 2013

  Actual Average Record
Temperature  
Mean Temperature 25 °F -  
Max Temperature 35 °F 27 °F 55 °F (1961)
Min Temperature 15 °F 11 °F -15 °F (1971)
Degree Days  
Heating Degree Days 40    
Moisture  
Dew Point 16 °F    
Average Humidity 70    
Maximum Humidity 80    
Minimum Humidity 52    
Precipitation  
Precipitation 0.00 in - - ()
Sea Level Pressure  
Sea Level Pressure 30.23 in    
Wind  
Wind Speed 13 mph (WSW)    
Max Wind Speed 23 mph    
Max Gust Speed 31 mph    
Visibility 10 miles    
Events      
Averages and records for this station are not official NWS values.
T = Trace of Precipitation, MM = Missing Value Source: NWS Daily Summary

Daily Weather History Graph

Daily Weather History Graph

Search for Another Location

Airport or City:

Astronomy

Jan. 06, 2013 Rise Set
Actual Time 7:42 AM CST 5:04 PM CST
Civil Twilight 7:11 AM CST 5:35 PM CST
Nautical Twilight 6:37 AM CST 6:09 PM CST
Astronomical Twilight 6:04 AM CST 6:43 PM CST
Moon 1:56 AM CST (1/6) 12:33 PM CST (1/6)
Length of Visible Light 10h 23m
Length of Day
9h 22m
Waning Crescent, 33% of the Moon is Illuminated
Jan 6
Waning Crescent
Jan 11
New
Jan 18
First Quarter
Jan 26
Full
Feb 3
Last Quarter

Hourly Weather History & Observations

Time (CST) Temp. Windchill Dew Point Humidity Pressure Visibility Wind Dir Wind Speed Gust Speed Precip Events Conditions
12:15 AM 24.8 °F 10.0 °F 17.6 °F 74% 30.11 in 10.0 mi WNW 21.9 mph - N/A   Overcast
12:35 AM 23.0 °F 8.7 °F 17.6 °F 80% 30.12 in 10.0 mi WNW 18.4 mph 25.3 mph N/A   Overcast
12:55 AM 21.2 °F 4.9 °F 15.8 °F 80% 30.12 in 10.0 mi WNW 23.0 mph 31.1 mph N/A   Overcast
1:15 AM 21.2 °F 6.0 °F 14.0 °F 74% 30.12 in 10.0 mi WNW 19.6 mph 27.6 mph N/A   Overcast
1:35 AM 19.4 °F 3.2 °F 14.0 °F 80% 30.13 in 10.0 mi WNW 20.7 mph 28.8 mph N/A   Overcast
1:55 AM 19.4 °F 2.8 °F 12.2 °F 74% 30.14 in 10.0 mi NW 21.9 mph 28.8 mph N/A   Overcast
2:15 AM 17.6 °F 0.5 °F 12.2 °F 79% 30.16 in 10.0 mi WNW 21.9 mph 27.6 mph N/A   Overcast
2:35 AM 17.6 °F 2.7 °F 12.2 °F 79% 30.17 in 10.0 mi NW 16.1 mph 25.3 mph N/A   Overcast
2:55 AM 17.6 °F 4.3 °F 12.2 °F 79% 30.18 in 10.0 mi NW 12.7 mph 19.6 mph N/A   Overcast
3:15 AM 17.6 °F 3.7 °F 12.2 °F 79% 30.18 in 10.0 mi NW 13.8 mph - N/A   Overcast
3:35 AM 17.6 °F 3.2 °F 12.2 °F 79% 30.18 in 10.0 mi NW 15.0 mph 19.6 mph N/A   Scattered Clouds
4:15 AM 17.6 °F 5.0 °F 12.2 °F 79% 30.18 in 10.0 mi WNW 11.5 mph - N/A   Clear
4:35 AM 17.6 °F 5.0 °F 12.2 °F 79% 30.19 in 10.0 mi WNW 11.5 mph - N/A   Clear
4:55 AM 17.6 °F 5.0 °F 12.2 °F 79% 30.19 in 10.0 mi WNW 11.5 mph - N/A   Clear
5:35 AM 17.6 °F 5.0 °F 12.2 °F 79% 30.20 in 10.0 mi WNW 11.5 mph - N/A   Clear
5:55 AM 15.8 °F 1.4 °F 10.4 °F 79% 30.20 in 10.0 mi WNW 13.8 mph - N/A   Clear
6:35 AM 15.8 °F 3.4 °F 10.4 °F 79% 30.22 in 10.0 mi WNW 10.4 mph - N/A   Clear
6:55 AM 15.8 °F 6.1 °F 10.4 °F 79% 30.22 in 10.0 mi WNW 6.9 mph - N/A   Clear
7:15 AM 15.8 °F 5.1 °F 10.4 °F 79% 30.24 in 10.0 mi WNW 8.1 mph - N/A   Clear
7:35 AM 15.8 °F 6.1 °F 10.4 °F 79% 30.25 in 10.0 mi West 6.9 mph - N/A   Clear
7:55 AM 15.8 °F 4.2 °F 10.4 °F 79% 30.25 in 10.0 mi West 9.2 mph - N/A   Clear
8:15 AM 15.8 °F 5.1 °F 10.4 °F 79% 30.26 in 10.0 mi WNW 8.1 mph - N/A   Clear
8:35 AM 15.8 °F 5.1 °F 10.4 °F 79% 30.26 in 10.0 mi West 8.1 mph - N/A   Clear
8:55 AM 17.6 °F 7.3 °F 10.4 °F 73% 30.27 in 10.0 mi West 8.1 mph - N/A   Clear
9:15 AM 17.6 °F 6.4 °F 12.2 °F 79% 30.27 in 10.0 mi West 9.2 mph - N/A   Clear
9:35 AM 19.4 °F 8.6 °F 12.2 °F 74% 30.27 in 10.0 mi West 9.2 mph - N/A   Clear
9:55 AM 19.4 °F 7.9 °F 12.2 °F 74% 30.29 in 10.0 mi WNW 10.4 mph - N/A   Clear
10:15 AM 21.2 °F 10.9 °F 14.0 °F 74% 30.30 in 10.0 mi WNW 9.2 mph - N/A   Clear
10:35 AM 21.2 °F 11.7 °F 15.8 °F 80% 30.31 in 10.0 mi WNW 8.1 mph - N/A   Clear
10:55 AM 24.8 °F 16.1 °F 15.8 °F 69% 30.30 in 10.0 mi West 8.1 mph - N/A   Clear
11:15 AM 24.8 °F 15.3 °F 15.8 °F 69% 30.30 in 10.0 mi West 9.2 mph - N/A   Clear
11:35 AM 26.6 °F 18.2 °F 15.8 °F 64% 30.30 in 10.0 mi WNW 8.1 mph - N/A   Clear
11:55 AM 26.6 °F 20.0 °F 17.6 °F 69% 30.29 in 10.0 mi West 5.8 mph - N/A   Clear
12:15 PM 28.4 °F 22.2 °F 17.6 °F 64% 30.28 in 10.0 mi West 5.8 mph - N/A   Clear
12:35 PM 28.4 °F 20.4 °F 17.6 °F 64% 30.27 in 10.0 mi West 8.1 mph - N/A   Clear
12:55 PM 30.2 °F 22.6 °F 17.6 °F 60% 30.27 in 10.0 mi West 8.1 mph - N/A   Clear
1:15 PM 32.0 °F 24.8 °F 17.6 °F 55% 30.26 in 10.0 mi West 8.1 mph - N/A   Clear
1:35 PM 32.0 °F 26.4 °F 17.6 °F 55% 30.26 in 10.0 mi WSW 5.8 mph - N/A   Clear
1:55 PM 33.8 °F - 17.6 °F 52% 30.26 in 10.0 mi Calm Calm - N/A   Clear
2:15 PM 33.8 °F 29.6 °F 17.6 °F 52% 30.26 in 10.0 mi SW 4.6 mph - N/A   Clear
2:35 PM 33.8 °F 29.6 °F 17.6 °F 52% 30.26 in 10.0 mi WSW 4.6 mph - N/A   Clear
2:55 PM 33.8 °F 27.7 °F 17.6 °F 52% 30.26 in 10.0 mi WSW 6.9 mph - N/A   Clear
3:15 PM 33.8 °F 27.0 °F 19.4 °F 56% 30.25 in 10.0 mi SW 8.1 mph - N/A   Clear
3:35 PM 35.6 °F 29.2 °F 19.4 °F 52% 30.26 in 10.0 mi SSW 8.1 mph - N/A   Clear
3:55 PM 33.8 °F 27.7 °F 17.6 °F 52% 30.27 in 10.0 mi SW 6.9 mph - N/A   Clear
4:15 PM 33.8 °F 30.8 °F 19.4 °F 56% 30.26 in 10.0 mi SW 3.5 mph - N/A   Clear
4:35 PM 33.8 °F 29.6 °F 19.4 °F 56% 30.26 in 10.0 mi SSW 4.6 mph - N/A   Clear
4:55 PM 32.0 °F 26.4 °F 19.4 °F 60% 30.26 in 10.0 mi SSW 5.8 mph - N/A   Clear
5:15 PM 30.2 °F 24.3 °F 19.4 °F 64% 30.26 in 10.0 mi SSW 5.8 mph - N/A   Clear
5:35 PM 30.2 °F 25.4 °F 17.6 °F 60% 30.26 in 10.0 mi SSW 4.6 mph - N/A   Clear
5:55 PM 28.4 °F 21.2 °F 19.4 °F 69% 30.26 in 10.0 mi SSW 6.9 mph - N/A   Clear
6:15 PM 28.4 °F 20.4 °F 19.4 °F 69% 30.25 in 10.0 mi South 8.1 mph - N/A   Clear
6:35 PM 28.4 °F 21.2 °F 17.6 °F 64% 30.25 in 10.0 mi SSW 6.9 mph - N/A   Clear
6:55 PM 26.6 °F 17.5 °F 17.6 °F 69% 30.25 in 10.0 mi South 9.2 mph - N/A   Clear
7:15 PM 26.6 °F 17.5 °F 17.6 °F 69% 30.25 in 10.0 mi SSW 9.2 mph - N/A   Clear
7:35 PM 26.6 °F 16.8 °F 19.4 °F 74% 30.24 in 10.0 mi South 10.4 mph - N/A   Clear
7:55 PM 26.6 °F 16.2 °F 19.4 °F 74% 30.24 in 10.0 mi South 11.5 mph - N/A   Clear
8:15 PM 26.6 °F 16.8 °F 19.4 °F 74% 30.24 in 10.0 mi South 10.4 mph - N/A   Clear
8:35 PM 26.6 °F 16.8 °F 17.6 °F 69% 30.23 in 10.0 mi South 10.4 mph - N/A   Clear
8:55 PM 26.6 °F 16.2 °F 19.4 °F 74% 30.22 in 10.0 mi South 11.5 mph - N/A   Clear
9:55 PM 26.6 °F 15.2 °F 17.6 °F 69% 30.20 in 10.0 mi South 13.8 mph - N/A   Clear
10:35 PM 26.6 °F 15.2 °F 17.6 °F 69% 30.18 in 10.0 mi South 13.8 mph - N/A   Clear
10:55 PM 26.6 °F 15.2 °F 17.6 °F 69% 30.19 in 10.0 mi South 13.8 mph - N/A   Clear
11:35 PM 24.8 °F 14.0 °F 17.6 °F 74% 30.18 in 10.0 mi South 11.5 mph - N/A   Clear
11:55 PM 24.8 °F 14.0 °F 17.6 °F 74% 30.18 in 10.0 mi South 11.5 mph - N/A   Clear